Location: Chandrammap?lem
(16.9200°N, 81.0051°E)
Time: 09:54:27
(UTC+00:00)

Meteor 2-6 Rocket - Pass Details

Date: 29 May 2024
Orbit: 805 x 914 km, 81.3° (Epoch: 14 June)

Event Time Altitude Azimuth Distance (km) Brightness Sun altitude
Rises 14:06:47 0° 177° (S) 3,448 7.1 -14.1°
Reaches altitude 10° 14:09:16 10° 173° (S) 2,495 6.3 -14.6°
Maximum altitude 14:14:50 60° 94° (E) 964 4.2 -15.8°
Drops below altitude 10° 14:20:14 10° 16° (NNE) 2,429 6.8 -16.9°
Sets 14:22:37 0° 12° (NNE) 3,350 7.6 -17.4°
